^^
Datos históricos de la estación: Murcia-Puente Tocinos
Diario Informe para Julio 18, 2019 Unidades:  Métrico    Inglés   Ambas
Diario Semanal Mensual Anual Configurable
  Máximo: Mínimo: Media:
Temperatura: 33.4 °C 22.7 °C 27.1 °C
Punto de rocio: 20.2 °C 11.7 °C 17.5 °C
Humedad: 82% 27% 59%
Velocidad viento: 16.1km/h 0.0km/h 6.9km/h
Racha viento: 27.4km/h - -
Viento- - ESE
Presión: 1013.4 hPa 1010.7 hPa -
Precipitación: 0.0 mm    
Historical Graphs
 
 
Tabla de datos para Julio 18, 2019
Hora Temperatura Punto de rocio Presión Viento Velocidad viento Racha viento Humedad Intensidad lluvia(por hora) Nubes
00:04 24.9 °C 19.3 °C 1011.7 hPa ENE 11.9 km/h 9.3 km/h 71% 0.0 mm CLR
00:09 24.9 °C 19.3 °C 1011.7 hPa NNE 7.6 km/h 11.1 km/h 71% 0.0 mm CLR
00:14 24.9 °C 19.3 °C 1011.7 hPa East 7.6 km/h 7.4 km/h 71% 0.0 mm CLR
00:19 24.9 °C 19.3 °C 1012.0 hPa ENE 5.8 km/h 3.7 km/h 71% 0.0 mm CLR
00:24 24.9 °C 19.3 °C 1012.0 hPa ENE 5.8 km/h   71% 0.0 mm CLR
00:29 24.9 °C 19.1 °C 1012.0 hPa Calm   7.4 km/h 70% 0.0 mm CLR
00:34 24.9 °C 19.1 °C 1011.9 hPa Calm   5.8 km/h 70% 0.0 mm CLR
00:39 25.0 °C 19.4 °C 1011.9 hPa NE 2.9 km/h 5.6 km/h 71% 0.0 mm CLR
00:44 24.9 °C 19.3 °C 1011.9 hPa NE 2.9 km/h 7.4 km/h 71% 0.0 mm CLR
00:49 24.8 °C 19.2 °C 1012.3 hPa NNW 3.9 km/h 2.3 km/h 71% 0.0 mm CLR
00:54 24.7 °C 19.3 °C 1012.3 hPa North 3.9 km/h 7.6 km/h 72% 0.0 mm CLR
00:59 24.6 °C 19.2 °C 1012.3 hPa NNW 3.9 km/h 7.4 km/h 72% 0.0 mm CLR
01:04 24.5 °C 19.3 °C 1012.4 hPa North 3.9 km/h 5.6 km/h 73% 0.0 mm CLR
01:09 24.4 °C 19.2 °C 1012.4 hPa NNE 3.2 km/h   73% 0.0 mm CLR
01:14 24.3 °C 19.4 °C 1012.4 hPa WNW 3.2 km/h   74% 0.0 mm CLR
01:19 24.3 °C 19.4 °C 1012.5 hPa Calm     74% 0.0 mm CLR
01:24 24.3 °C 19.4 °C 1012.5 hPa Calm     74% 0.0 mm CLR
01:29 24.3 °C 19.4 °C 1012.5 hPa NW 2.3 km/h 5.6 km/h 74% 0.0 mm CLR
01:34 24.3 °C 19.4 °C 1012.4 hPa NW 2.3 km/h 3.7 km/h 74% 0.0 mm CLR
01:39 24.3 °C 19.4 °C 1012.4 hPa NW 2.9 km/h 4.7 km/h 74% 0.0 mm CLR
01:44 24.3 °C 19.4 °C 1012.4 hPa NW 2.9 km/h   74% 0.0 mm CLR
01:49 24.3 °C 19.4 °C 1012.3 hPa NW 2.3 km/h 3.7 km/h 74% 0.0 mm CLR
01:54 24.4 °C 19.4 °C 1012.3 hPa NNE 2.3 km/h   74% 0.0 mm CLR
01:59 24.3 °C 19.4 °C 1012.3 hPa Calm   5.6 km/h 74% 0.0 mm CLR
02:04 24.3 °C 19.4 °C 1012.4 hPa Calm   7.4 km/h 74% 0.0 mm CLR
02:09 24.3 °C 19.6 °C 1012.4 hPa NW 3.9 km/h 3.7 km/h 75% 0.0 mm CLR
02:14 24.2 °C 19.5 °C 1012.4 hPa NW 3.9 km/h   75% 0.0 mm CLR
02:19 24.2 °C 19.5 °C 1012.3 hPa Calm   5.6 km/h 75% 0.0 mm CLR
02:24 24.1 °C 19.4 °C 1012.3 hPa Calm   4.7 km/h 75% 0.0 mm CLR
02:29 24.1 °C 19.4 °C 1012.3 hPa NE 2.9 km/h 6.4 km/h 75% 0.0 mm CLR
02:34 24.1 °C 19.4 °C 1012.2 hPa NE 2.9 km/h 7.4 km/h 75% 0.0 mm CLR
02:39 24.1 °C 19.4 °C 1012.2 hPa NE 5.0 km/h 9.3 km/h 75% 0.0 mm CLR
02:44 23.9 °C 19.2 °C 1012.2 hPa NE 5.0 km/h 7.4 km/h 75% 0.0 mm CLR
02:49 23.8 °C 19.3 °C 1012.1 hPa NE 5.0 km/h 7.4 km/h 76% 0.0 mm CLR
02:54 23.7 °C 19.2 °C 1012.1 hPa North 5.0 km/h 5.8 km/h 76% 0.0 mm CLR
02:59 23.7 °C 19.4 °C 1012.1 hPa ENE 4.7 km/h 7.4 km/h 77% 0.0 mm CLR
03:04 23.6 °C 19.3 °C 1012.1 hPa ENE 4.7 km/h 5.6 km/h 77% 0.0 mm CLR
03:09 23.5 °C 19.2 °C 1012.1 hPa NE 5.8 km/h 7.4 km/h 77% 0.0 mm CLR
03:14 23.4 °C 19.1 °C 1012.1 hPa NE 5.8 km/h 8.4 km/h 77% 0.0 mm CLR
03:19 23.4 °C 19.3 °C 1012.1 hPa NNE 5.8 km/h 7.4 km/h 78% 0.0 mm CLR
03:24 23.3 °C 19.2 °C 1012.1 hPa ENE 5.8 km/h 5.8 km/h 78% 0.0 mm CLR
03:29 23.2 °C 19.2 °C 1012.1 hPa NE 5.0 km/h 7.4 km/h 78% 0.0 mm CLR
03:34 23.1 °C 19.3 °C 1011.9 hPa NE 5.0 km/h 9.3 km/h 79% 0.0 mm CLR
03:39 23.1 °C 19.3 °C 1011.9 hPa NNE 5.8 km/h 7.4 km/h 79% 0.0 mm CLR
03:44 23.0 °C 19.2 °C 1011.9 hPa NE 5.8 km/h 11.1 km/h 79% 0.0 mm CLR
03:49 22.9 °C 19.1 °C 1011.8 hPa NE 6.4 km/h 9.3 km/h 79% 0.0 mm CLR
03:54 22.8 °C 18.9 °C 1011.8 hPa NNE 6.4 km/h 9.5 km/h 79% 0.0 mm CLR
03:59 22.7 °C 19.1 °C 1011.8 hPa NNE 6.4 km/h 7.4 km/h 80% 0.0 mm CLR
04:04 22.7 °C 19.1 °C 1011.9 hPa NNW 6.4 km/h 5.6 km/h 80% 0.0 mm CLR
04:09 22.7 °C 19.1 °C 1011.9 hPa North 3.2 km/h 3.7 km/h 80% 0.0 mm CLR
04:14 22.7 °C 19.1 °C 1011.9 hPa NNW 3.2 km/h 5.6 km/h 80% 0.0 mm CLR
04:19 22.7 °C 19.3 °C 1011.9 hPa North 2.3 km/h 7.4 km/h 81% 0.0 mm CLR
04:24 22.7 °C 19.3 °C 1011.9 hPa NW 2.3 km/h 5.6 km/h 81% 0.0 mm CLR
04:29 22.7 °C 19.3 °C 1011.9 hPa NNW 3.9 km/h 5.6 km/h 81% 0.0 mm CLR
04:34 22.7 °C 19.3 °C 1012.0 hPa NNE 3.9 km/h 3.7 km/h 81% 0.0 mm CLR
04:39 22.7 °C 19.3 °C 1012.0 hPa NNW 2.9 km/h 3.7 km/h 81% 0.0 mm CLR
04:44 22.7 °C 19.3 °C 1012.0 hPa NNW 2.9 km/h   81% 0.0 mm CLR
04:49 22.8 °C 19.4 °C 1012.2 hPa Calm     81% 0.0 mm CLR
04:54 22.8 °C 19.4 °C 1012.2 hPa Calm   5.0 km/h 81% 0.0 mm CLR
04:59 22.8 °C 19.4 °C 1012.2 hPa NW 2.3 km/h 6.9 km/h 81% 0.0 mm CLR
05:04 22.9 °C 19.4 °C 1012.1 hPa NW 2.3 km/h 3.7 km/h 81% 0.0 mm CLR
05:09 22.9 °C 19.4 °C 1012.1 hPa NW 2.9 km/h 3.7 km/h 81% 0.0 mm CLR
05:14 22.9 °C 19.4 °C 1012.1 hPa NW 2.9 km/h   81% 0.0 mm CLR
05:19 22.9 °C 19.4 °C 1012.0 hPa Calm   3.7 km/h 81% 0.0 mm CLR
05:24 22.8 °C 19.4 °C 1012.0 hPa Calm   5.6 km/h 81% 0.0 mm CLR
05:29 22.8 °C 19.6 °C 1012.0 hPa NW 3.2 km/h 5.6 km/h 82% 0.0 mm CLR
05:34 22.8 °C 19.6 °C 1011.9 hPa WNW 3.2 km/h 4.7 km/h 82% 0.0 mm CLR
05:39 22.7 °C 19.4 °C 1011.9 hPa West 3.2 km/h 3.9 km/h 82% 0.0 mm CLR
05:44 22.7 °C 19.4 °C 1011.9 hPa West 3.2 km/h 3.7 km/h 82% 0.0 mm CLR
05:49 22.7 °C 19.4 °C 1011.9 hPa West 2.9 km/h 3.7 km/h 82% 0.0 mm CLR
05:54 22.7 °C 19.4 °C 1011.9 hPa WNW 2.9 km/h 3.7 km/h 82% 0.0 mm CLR
05:59 22.7 °C 19.4 °C 1011.9 hPa Calm     82% 0.0 mm CLR
06:04 22.7 °C 19.4 °C 1011.9 hPa Calm   3.7 km/h 82% 0.0 mm CLR
06:09 22.7 °C 19.4 °C 1011.9 hPa Calm   3.7 km/h 82% 0.0 mm CLR
06:14 22.7 °C 19.4 °C 1011.9 hPa Calm   3.7 km/h 82% 0.0 mm CLR
06:19 22.7 °C 19.4 °C 1011.9 hPa Calm     82% 0.0 mm CLR
06:24 22.7 °C 19.4 °C 1011.9 hPa Calm   3.7 km/h 82% 0.0 mm CLR
06:29 22.7 °C 19.4 °C 1011.9 hPa WNW 2.3 km/h 3.7 km/h 82% 0.0 mm CLR
06:34 22.7 °C 19.4 °C 1012.0 hPa WNW 2.3 km/h   82% 0.0 mm CLR
06:39 22.7 °C 19.4 °C 1012.0 hPa Calm     82% 0.0 mm CLR
06:44 22.7 °C 19.3 °C 1012.0 hPa Calm     81% 0.0 mm CLR
06:49 22.7 °C 19.4 °C 1012.0 hPa Calm     82% 0.0 mm CLR
06:54 22.7 °C 19.4 °C 1012.0 hPa Calm     82% 0.0 mm CLR
06:59 22.7 °C 19.4 °C 1012.0 hPa Calm     82% 0.0 mm CLR
07:04 22.7 °C 19.4 °C 1012.1 hPa Calm     82% 0.0 mm CLR
07:09 22.7 °C 19.4 °C 1012.1 hPa Calm     82% 0.0 mm CLR
07:14 22.7 °C 19.3 °C 1012.1 hPa Calm     81% 0.0 mm CLR
07:19 22.7 °C 19.1 °C 1012.3 hPa SE 2.3 km/h 7.4 km/h 80% 0.0 mm CLR
07:24 22.7 °C 18.9 °C 1012.3 hPa SSE 2.3 km/h 3.7 km/h 79% 0.0 mm CLR
07:29 22.8 °C 18.9 °C 1012.3 hPa South 3.9 km/h 7.4 km/h 79% 0.0 mm CLR
07:34 22.8 °C 18.9 °C 1012.4 hPa South 3.9 km/h 5.6 km/h 79% 0.0 mm CLR
07:39 22.9 °C 19.1 °C 1012.4 hPa South 3.2 km/h   79% 0.0 mm CLR
07:44 23.1 °C 19.1 °C 1012.4 hPa South 3.2 km/h 7.4 km/h 78% 0.0 mm CLR
07:49 23.1 °C 19.1 °C 1012.5 hPa South 2.9 km/h 5.8 km/h 78% 0.0 mm CLR
07:54 23.2 °C 18.9 °C 1012.5 hPa SSW 2.9 km/h 8.7 km/h 77% 0.0 mm CLR
07:59 23.2 °C 19.2 °C 1012.5 hPa South 4.7 km/h 9.3 km/h 78% 0.0 mm CLR
08:04 23.2 °C 18.9 °C 1012.5 hPa SSE 4.7 km/h 10.0 km/h 77% 0.0 mm CLR
08:09 23.2 °C 19.2 °C 1012.5 hPa SE 6.9 km/h 10.0 km/h 78% 0.0 mm CLR
08:14 23.1 °C 19.1 °C 1012.5 hPa SSE 6.9 km/h 7.6 km/h 78% 0.0 mm CLR
08:19 23.2 °C 19.2 °C 1012.5 hPa South 6.9 km/h 7.4 km/h 78% 0.0 mm CLR
08:24 23.2 °C 19.2 °C 1012.5 hPa South 6.9 km/h 7.4 km/h 78% 0.0 mm CLR
08:29 23.4 °C 19.3 °C 1012.5 hPa SE 5.8 km/h 7.4 km/h 78% 0.0 mm CLR
08:34 23.5 °C 19.2 °C 1012.7 hPa SSW 5.8 km/h 7.4 km/h 77% 0.0 mm CLR
08:39 23.8 °C 19.3 °C 1012.7 hPa South 5.0 km/h 7.4 km/h 76% 0.0 mm CLR
08:44 23.9 °C 19.4 °C 1012.7 hPa SE 5.0 km/h 7.4 km/h 76% 0.0 mm CLR
08:49 23.9 °C 19.4 °C 1012.7 hPa SSE 5.0 km/h 9.3 km/h 76% 0.0 mm CLR
08:54 24.0 °C 19.5 °C 1012.7 hPa South 5.0 km/h 7.4 km/h 76% 0.0 mm CLR
08:59 24.1 °C 19.4 °C 1012.7 hPa West 4.7 km/h 9.3 km/h 75% 0.0 mm CLR
09:04 24.2 °C 19.5 °C 1013.0 hPa WNW 4.7 km/h 7.4 km/h 75% 0.0 mm CLR
09:09 24.3 °C 19.6 °C 1013.0 hPa NW 3.9 km/h   75% 0.0 mm CLR
09:14 24.5 °C 19.6 °C 1013.0 hPa NW 3.9 km/h 9.3 km/h 74% 0.0 mm CLR
09:19 24.7 °C 19.8 °C 1013.2 hPa SSE 3.9 km/h 5.8 km/h 74% 0.0 mm CLR
09:24 24.8 °C 19.6 °C 1013.2 hPa SE 3.9 km/h 5.6 km/h 73% 0.0 mm CLR
09:29 24.9 °C 19.7 °C 1013.2 hPa ESE 3.9 km/h 7.4 km/h 73% 0.0 mm CLR
09:34 25.1 °C 19.7 °C 1013.3 hPa NW 3.9 km/h 5.6 km/h 72% 0.0 mm CLR
09:39 25.3 °C 19.9 °C 1013.3 hPa North 3.2 km/h 7.4 km/h 72% 0.0 mm CLR
09:44 25.5 °C 19.8 °C 1013.3 hPa NW 3.2 km/h 5.8 km/h 71% 0.0 mm CLR
09:49 25.6 °C 19.7 °C 1013.4 hPa NW 3.9 km/h 3.7 km/h 70% 0.0 mm CLR
09:54 25.8 °C 19.9 °C 1013.4 hPa North 3.9 km/h 3.9 km/h 70% 0.0 mm CLR
09:59 26.2 °C 19.8 °C 1013.4 hPa NE 2.9 km/h 9.3 km/h 68% 0.0 mm CLR
10:04 26.3 °C 20.2 °C 1013.4 hPa NE 2.9 km/h 7.4 km/h 69% 0.0 mm CLR
10:09 26.5 °C 19.9 °C 1013.4 hPa NE 3.9 km/h 6.4 km/h 67% 0.0 mm CLR
10:14 26.6 °C 19.7 °C 1013.4 hPa ENE 3.9 km/h 7.4 km/h 66% 0.0 mm CLR
10:19 26.7 °C 19.6 °C 1013.3 hPa ENE 4.7 km/h 7.4 km/h 65% 0.0 mm CLR
10:24 26.8 °C 19.4 °C 1013.3 hPa ENE 4.7 km/h 7.4 km/h 64% 0.0 mm CLR
10:29 26.9 °C 19.3 °C 1013.3 hPa NE 4.7 km/h 7.4 km/h 63% 0.0 mm CLR
10:34 27.1 °C 19.4 °C 1013.3 hPa NNE 4.7 km/h 6.4 km/h 63% 0.0 mm CLR
10:39 27.3 °C 19.1 °C 1013.3 hPa North 3.9 km/h 8.4 km/h 61% 0.0 mm CLR
10:44 27.3 °C 19.6 °C 1013.3 hPa East 3.9 km/h 7.4 km/h 63% 0.0 mm CLR
10:49 27.4 °C 19.7 °C 1013.2 hPa North 5.0 km/h 13.0 km/h 63% 0.0 mm CLR
10:54 27.5 °C 19.6 °C 1013.2 hPa NNE 5.0 km/h 7.6 km/h 62% 0.0 mm CLR
10:59 27.6 °C 19.4 °C 1013.2 hPa ENE 5.8 km/h 9.3 km/h 61% 0.0 mm CLR
11:04 27.6 °C 19.4 °C 1013.3 hPa ESE 5.8 km/h 7.4 km/h 61% 0.0 mm CLR
11:09 27.6 °C 19.1 °C 1013.3 hPa NW 5.8 km/h 7.6 km/h 60% 0.0 mm CLR
11:14 27.6 °C 19.4 °C 1013.3 hPa North 5.8 km/h 11.1 km/h 61% 0.0 mm CLR
11:19 27.4 °C 18.9 °C 1013.3 hPa NNE 7.6 km/h 13.0 km/h 60% 0.0 mm CLR
11:24 27.5 °C 19.1 °C 1013.3 hPa NE 7.6 km/h 13.0 km/h 60% 0.0 mm CLR
11:29 27.4 °C 18.9 °C 1013.3 hPa North 8.7 km/h 13.0 km/h 60% 0.0 mm CLR
11:34 27.6 °C 19.1 °C 1013.4 hPa NE 8.7 km/h 9.5 km/h 60% 0.0 mm CLR
11:39 27.8 °C 19.1 °C 1013.4 hPa NNE 6.9 km/h 7.4 km/h 59% 0.0 mm CLR
11:44 27.9 °C 18.9 °C 1013.4 hPa NE 6.9 km/h 11.1 km/h 58% 0.0 mm CLR
11:49 28.1 °C 18.5 °C 1013.4 hPa ENE 7.6 km/h 9.3 km/h 56% 0.0 mm CLR
11:54 28.3 °C 18.7 °C 1013.4 hPa NE 7.6 km/h 8.7 km/h 56% 0.0 mm CLR
11:59 28.4 °C 18.5 °C 1013.4 hPa NNW 7.6 km/h 13.0 km/h 55% 0.0 mm CLR
12:04 28.5 °C 18.6 °C 1013.4 hPa NW 7.6 km/h 10.0 km/h 55% 0.0 mm CLR
12:09 28.6 °C 18.7 °C 1013.4 hPa North 8.4 km/h 18.5 km/h 55% 0.0 mm CLR
12:14 28.7 °C 18.5 °C 1013.4 hPa East 8.4 km/h 13.0 km/h 54% 0.0 mm CLR
12:19 29.1 °C 18.8 °C 1013.4 hPa NNE 7.6 km/h 14.0 km/h 54% 0.0 mm CLR
12:24 29.0 °C 18.2 °C 1013.4 hPa ENE 7.6 km/h 16.7 km/h 52% 0.0 mm CLR
12:29 29.2 °C 18.3 °C 1013.4 hPa NE 10.0 km/h 11.1 km/h 52% 0.0 mm CLR
12:34 29.6 °C 18.4 °C 1013.3 hPa NNW 10.0 km/h 16.7 km/h 51% 0.0 mm CLR
12:39 29.6 °C 18.1 °C 1013.3 hPa ENE 10.0 km/h 7.4 km/h 50% 0.0 mm CLR
12:44 29.8 °C 18.3 °C 1013.3 hPa North 10.0 km/h 11.1 km/h 50% 0.0 mm CLR
12:49 29.8 °C 18.3 °C 1013.2 hPa NNE 9.5 km/h 13.7 km/h 50% 0.0 mm CLR
12:54 29.9 °C 18.1 °C 1013.2 hPa NE 9.5 km/h 16.7 km/h 49% 0.0 mm CLR
12:59 30.1 °C 17.9 °C 1013.2 hPa ENE 10.0 km/h 13.7 km/h 48% 0.0 mm CLR
13:04 30.2 °C 18.0 °C 1013.1 hPa NE 10.0 km/h 9.3 km/h 48% 0.0 mm CLR
13:09 30.3 °C 17.7 °C 1013.1 hPa NE 10.0 km/h 22.2 km/h 47% 0.0 mm CLR
13:14 30.2 °C 18.0 °C 1013.1 hPa NE 10.0 km/h 16.4 km/h 48% 0.0 mm CLR
13:19 30.3 °C 18.4 °C 1012.9 hPa NE 11.9 km/h 18.5 km/h 49% 0.0 mm CLR
13:24 30.6 °C 18.7 °C 1012.9 hPa East 11.9 km/h 24.1 km/h 49% 0.0 mm CLR
13:29 30.5 °C 18.6 °C 1012.9 hPa ENE 13.7 km/h 16.7 km/h 49% 0.0 mm CLR
13:34 30.6 °C 18.7 °C 1012.7 hPa North 13.7 km/h 14.8 km/h 49% 0.0 mm CLR
13:39 30.8 °C 17.8 °C 1012.7 hPa SE 11.9 km/h 22.2 km/h 46% 0.0 mm CLR
13:44 30.9 °C 18.6 °C 1012.7 hPa East 11.9 km/h 20.4 km/h 48% 0.0 mm CLR
13:49 31.0 °C 18.4 °C 1012.8 hPa ENE 13.0 km/h 16.7 km/h 47% 0.0 mm CLR
13:54 31.2 °C 17.8 °C 1012.8 hPa East 13.0 km/h 20.4 km/h 45% 0.0 mm CLR
13:59 31.3 °C 17.9 °C 1012.8 hPa SSE 9.5 km/h 20.4 km/h 45% 0.0 mm CLR
14:04 31.4 °C 17.3 °C 1012.7 hPa ESE 9.5 km/h 25.9 km/h 43% 0.0 mm CLR
14:09 31.1 °C 17.4 °C 1012.7 hPa ESE 14.0 km/h 14.8 km/h 44% 0.0 mm CLR
14:14 31.3 °C 17.6 °C 1012.7 hPa SE 14.0 km/h 18.5 km/h 44% 0.0 mm CLR
14:19 31.5 °C 17.1 °C 1012.6 hPa East 10.3 km/h 18.5 km/h 42% 0.0 mm CLR
14:24 31.5 °C 17.1 °C 1012.6 hPa ESE 10.3 km/h 22.2 km/h 42% 0.0 mm CLR
14:29 31.4 °C 16.6 °C 1012.6 hPa ESE 11.9 km/h 17.2 km/h 41% 0.0 mm CLR
14:34 31.6 °C 16.3 °C 1012.4 hPa East 11.9 km/h 19.0 km/h 40% 0.0 mm CLR
14:39 31.6 °C 15.9 °C 1012.4 hPa ESE 12.2 km/h 18.5 km/h 39% 0.0 mm CLR
14:44 31.3 °C 16.1 °C 1012.4 hPa South 12.2 km/h 11.1 km/h 40% 0.0 mm CLR
14:49 31.5 °C 15.9 °C 1012.3 hPa SSE 10.3 km/h 20.4 km/h 39% 0.0 mm CLR
14:54 31.4 °C 15.8 °C 1012.3 hPa NE 10.3 km/h 7.4 km/h 39% 0.0 mm CLR
14:59 31.6 °C 15.6 °C 1012.3 hPa ESE 10.0 km/h 18.5 km/h 38% 0.0 mm CLR
15:04 31.9 °C 15.0 °C 1012.1 hPa NE 10.0 km/h 16.7 km/h 36% 0.0 mm CLR
15:09 31.9 °C 15.4 °C 1012.1 hPa NE 7.6 km/h 8.4 km/h 37% 0.0 mm CLR
15:14 32.2 °C 15.2 °C 1012.1 hPa ESE 7.6 km/h 18.5 km/h 36% 0.0 mm CLR
15:19 32.3 °C 15.3 °C 1012.0 hPa SSE 9.5 km/h 16.7 km/h 36% 0.0 mm CLR
15:24 32.4 °C 14.1 °C 1012.0 hPa ESE 9.5 km/h 18.5 km/h 33% 0.0 mm CLR
15:29 32.4 °C 13.1 °C 1012.0 hPa ESE 10.0 km/h 16.1 km/h 31% 0.0 mm CLR
15:34 32.4 °C 13.1 °C 1011.9 hPa SE 10.0 km/h 18.5 km/h 31% 0.0 mm CLR
15:39 32.6 °C 12.3 °C 1011.9 hPa SE 12.2 km/h 11.1 km/h 29% 0.0 mm CLR
15:44 32.6 °C 12.3 °C 1011.9 hPa SE 12.2 km/h 22.2 km/h 29% 0.0 mm CLR
15:49 32.9 °C 12.0 °C 1011.7 hPa ESE 11.9 km/h 16.7 km/h 28% 0.0 mm CLR
15:54 33.2 °C 11.7 °C 1011.7 hPa NE 11.9 km/h 10.0 km/h 27% 0.0 mm CLR
15:59 33.2 °C 11.7 °C 1011.7 hPa SE 8.4 km/h 16.7 km/h 27% 0.0 mm CLR
16:04 33.3 °C 12.3 °C 1011.6 hPa SE 8.4 km/h 14.8 km/h 28% 0.0 mm CLR
16:05 33.3 °C 12.3 °C 1011.6 hPa SSW 8.4 km/h 13.0 km/h 28% 0.0 mm CLR
17:20 33.4 °C 11.8 °C 1011.1 hPa ESE 10.3 km/h 11.1 km/h 27% 0.0 mm CLR
17:25 33.4 °C 12.4 °C 1011.1 hPa East 11.3 km/h 24.1 km/h 28% 0.0 mm CLR
17:30 33.3 °C 12.8 °C 1011.1 hPa SE 9.5 km/h 20.4 km/h 29% 0.0 mm CLR
17:35 33.2 °C 12.8 °C 1011.0 hPa ESE 9.7 km/h 22.5 km/h 29% 0.0 mm CLR
17:40 33.2 °C 12.8 °C 1011.0 hPa East 14.0 km/h 14.8 km/h 29% 0.0 mm CLR
17:45 33.1 °C 13.2 °C 1011.0 hPa ESE 14.5 km/h 24.1 km/h 30% 0.0 mm CLR
17:50 32.8 °C 12.9 °C 1011.0 hPa ESE 12.9 km/h 20.9 km/h 30% 0.0 mm CLR
17:55 32.8 °C 12.4 °C 1011.0 hPa ESE 12.9 km/h 19.3 km/h 29% 0.0 mm CLR
18:00 33.1 °C 13.2 °C 1011.0 hPa East 9.7 km/h 17.7 km/h 30% 0.0 mm CLR
18:05 33.2 °C 13.3 °C 1010.9 hPa East 9.7 km/h 20.9 km/h 30% 0.0 mm CLR
18:10 33.1 °C 13.2 °C 1010.9 hPa ESE 11.3 km/h 19.3 km/h 30% 0.0 mm CLR
18:15 32.9 °C 13.1 °C 1010.9 hPa ESE 11.3 km/h 19.3 km/h 30% 0.0 mm CLR
18:20 32.9 °C 13.1 °C 1010.8 hPa SE 10.3 km/h 20.4 km/h 30% 0.0 mm CLR
18:25 32.9 °C 13.1 °C 1010.8 hPa East 11.3 km/h 16.1 km/h 30% 0.0 mm CLR
18:30 32.9 °C 13.1 °C 1010.8 hPa NW 11.1 km/h 18.5 km/h 30% 0.0 mm CLR
18:35 32.8 °C 12.4 °C 1010.8 hPa ENE 11.3 km/h 20.9 km/h 29% 0.0 mm CLR
18:40 32.7 °C 13.3 °C 1010.8 hPa ENE 11.3 km/h 24.1 km/h 31% 0.0 mm CLR
18:45 32.4 °C 12.6 °C 1010.8 hPa ENE 11.3 km/h 27.4 km/h 30% 0.0 mm CLR
18:50 32.3 °C 13.0 °C 1010.7 hPa NE 16.1 km/h 22.2 km/h 31% 0.0 mm CLR
18:55 32.3 °C 12.5 °C 1010.7 hPa NE 16.1 km/h 25.7 km/h 30% 0.0 mm CLR
19:00 32.2 °C 12.4 °C 1010.7 hPa NE 16.1 km/h 25.7 km/h 30% 0.0 mm CLR
19:05 32.3 °C 13.0 °C 1010.7 hPa NE 16.1 km/h 20.9 km/h 31% 0.0 mm CLR
19:10 32.2 °C 12.4 °C 1010.7 hPa NE 14.8 km/h 24.1 km/h 30% 0.0 mm CLR
19:15 32.2 °C 12.4 °C 1010.7 hPa NE 14.5 km/h 25.7 km/h 30% 0.0 mm CLR
19:20 32.2 °C 12.4 °C 1010.9 hPa NE 16.1 km/h 27.4 km/h 30% 0.0 mm CLR
19:25 32.1 °C 12.8 °C 1010.9 hPa NE 16.1 km/h 22.5 km/h 31% 0.0 mm CLR
19:30 32.2 °C 12.9 °C 1010.9 hPa NE 12.9 km/h 24.1 km/h 31% 0.0 mm CLR
19:35 31.9 °C 13.2 °C 1010.8 hPa NE 12.9 km/h 25.7 km/h 32% 0.0 mm CLR
19:40 32.1 °C 13.3 °C 1010.8 hPa East 12.2 km/h 14.8 km/h 32% 0.0 mm CLR
19:45 32.2 °C 12.9 °C 1010.8 hPa ENE 12.9 km/h 17.7 km/h 31% 0.0 mm CLR
19:50 32.1 °C 12.8 °C 1011.0 hPa East 9.5 km/h 18.5 km/h 31% 0.0 mm CLR
19:55 31.9 °C 12.7 °C 1011.0 hPa East 9.7 km/h 22.5 km/h 31% 0.0 mm CLR
20:00 31.8 °C 12.6 °C 1011.0 hPa East 11.3 km/h 17.7 km/h 31% 0.0 mm CLR
20:05 31.7 °C 13.0 °C 1011.0 hPa East 11.3 km/h 16.1 km/h 32% 0.0 mm CLR
20:10 31.6 °C 13.4 °C 1011.0 hPa ESE 10.3 km/h 9.3 km/h 33% 0.0 mm CLR
20:15 31.4 °C 13.2 °C 1011.0 hPa ESE 11.3 km/h 20.9 km/h 33% 0.0 mm CLR
20:20 31.3 °C 14.4 °C 1011.3 hPa NE 10.0 km/h 11.9 km/h 36% 0.0 mm CLR
20:25 31.1 °C 14.7 °C 1011.3 hPa East 9.7 km/h 11.3 km/h 37% 0.0 mm CLR
20:30 30.9 °C 15.3 °C 1011.3 hPa ENE 7.6 km/h 7.4 km/h 39% 0.0 mm CLR
20:35 30.7 °C 14.7 °C 1011.4 hPa ENE 8.0 km/h 19.3 km/h 38% 0.0 mm CLR
20:40 30.3 °C 14.8 °C 1011.4 hPa SE 9.5 km/h 11.1 km/h 39% 0.0 mm CLR
20:45 30.2 °C 15.1 °C 1011.4 hPa ENE 9.7 km/h 12.9 km/h 40% 0.0 mm CLR
20:50 29.9 °C 15.2 °C 1011.6 hPa NE 8.4 km/h 13.0 km/h 41% 0.0 mm CLR
20:55 29.8 °C 15.1 °C 1011.6 hPa ENE 8.0 km/h 17.7 km/h 41% 0.0 mm CLR
21:00 29.7 °C 15.1 °C 1011.6 hPa ENE 8.0 km/h 11.3 km/h 41% 0.0 mm CLR
21:05 29.4 °C 14.8 °C 1011.8 hPa ENE 8.0 km/h 14.5 km/h 41% 0.0 mm CLR
21:10 29.3 °C 14.7 °C 1011.8 hPa East 8.4 km/h 18.5 km/h 41% 0.0 mm CLR
21:15 29.2 °C 14.6 °C 1011.8 hPa ENE 8.0 km/h 11.3 km/h 41% 0.0 mm CLR
21:20 28.9 °C 14.3 °C 1012.1 hPa ESE 7.6 km/h 11.1 km/h 41% 0.0 mm CLR
21:25 28.8 °C 14.6 °C 1012.1 hPa ESE 8.0 km/h 14.5 km/h 42% 0.0 mm CLR
21:30 28.7 °C 14.2 °C 1012.1 hPa ESE 6.9 km/h 9.3 km/h 41% 0.0 mm CLR
21:35 28.6 °C 14.4 °C 1012.1 hPa ESE 8.0 km/h 12.9 km/h 42% 0.0 mm CLR
21:40 28.4 °C 15.0 °C 1012.1 hPa ESE 8.0 km/h 14.5 km/h 44% 0.0 mm CLR
21:45 28.3 °C 15.6 °C 1012.1 hPa East 8.0 km/h 14.5 km/h 46% 0.0 mm CLR
21:50 28.0 °C 15.9 °C 1012.3 hPa NE 7.6 km/h 9.3 km/h 48% 0.0 mm CLR
21:55 27.8 °C 16.1 °C 1012.3 hPa East 8.0 km/h 14.5 km/h 49% 0.0 mm CLR
22:00 27.7 °C 16.3 °C 1012.3 hPa East 8.0 km/h 11.3 km/h 50% 0.0 mm CLR
22:05 27.6 °C 16.6 °C 1012.5 hPa ENE 8.0 km/h 11.3 km/h 51% 0.0 mm CLR
22:10 27.3 °C 17.2 °C 1012.5 hPa East 8.0 km/h 16.1 km/h 54% 0.0 mm CLR
22:15 27.2 °C 17.7 °C 1012.5 hPa East 8.0 km/h 16.1 km/h 56% 0.0 mm CLR
22:20 27.1 °C 17.8 °C 1012.6 hPa East 9.7 km/h 16.1 km/h 57% 0.0 mm CLR
22:25 26.9 °C 17.4 °C 1012.6 hPa ENE 9.7 km/h 19.3 km/h 56% 0.0 mm CLR
22:30 26.8 °C 17.3 °C 1012.6 hPa NE 9.7 km/h 14.5 km/h 56% 0.0 mm CLR
22:35 26.7 °C 17.5 °C 1012.8 hPa NE 9.7 km/h 12.9 km/h 57% 0.0 mm CLR
22:40 26.6 °C 17.7 °C 1012.8 hPa NE 7.6 km/h 7.4 km/h 58% 0.0 mm CLR
22:45 26.4 °C 17.7 °C 1012.8 hPa NE 8.0 km/h 11.3 km/h 59% 0.0 mm CLR
22:50 26.3 °C 17.9 °C 1013.0 hPa ENE 6.9 km/h 9.5 km/h 60% 0.0 mm CLR
22:55 26.2 °C 17.8 °C 1013.0 hPa NE 8.0 km/h 14.5 km/h 60% 0.0 mm CLR
23:00 26.1 °C 18.2 °C 1013.0 hPa NE 8.0 km/h 14.5 km/h 62% 0.0 mm CLR
23:05 25.8 °C 18.2 °C 1013.1 hPa NE 8.0 km/h 16.1 km/h 63% 0.0 mm CLR
23:10 25.7 °C 18.4 °C 1013.1 hPa NNE 8.7 km/h 11.1 km/h 64% 0.0 mm CLR
23:15 25.6 °C 18.6 °C 1013.1 hPa NE 9.7 km/h 14.5 km/h 65% 0.0 mm CLR
23:20 25.5 °C 18.7 °C 1013.3 hPa NNW 8.4 km/h 11.1 km/h 66% 0.0 mm CLR
23:25 25.4 °C 18.8 °C 1013.3 hPa NE 8.0 km/h 16.1 km/h 67% 0.0 mm CLR
23:30 25.3 °C 18.9 °C 1013.3 hPa NNE 9.5 km/h 13.0 km/h 68% 0.0 mm CLR
23:35 25.2 °C 19.1 °C 1013.3 hPa NE 9.7 km/h 14.5 km/h 69% 0.0 mm CLR
23:40 25.1 °C 19.2 °C 1013.3 hPa NE 9.7 km/h 16.1 km/h 70% 0.0 mm CLR
23:45 24.9 °C 19.3 °C 1013.3 hPa NE 9.7 km/h 19.3 km/h 71% 0.0 mm CLR
23:50 24.9 °C 19.3 °C 1013.3 hPa NE 12.9 km/h 19.3 km/h 71% 0.0 mm CLR
23:55 24.9 °C 19.5 °C 1013.3 hPa NE 12.9 km/h 19.3 km/h 72% 0.0 mm CLR
Murcia-Puente Tocinos, España
Compliments of Weather Underground - 2.75 mb

La estación de MeteoMurcia.com, publica sus datos en los siguientes proyectos:

Weather Underground PWS IMURCIAP2 Meteoclimatic www.awekas.at

W3Counter
Web Analytics